sat.trackr.live / text

‹ back to catalog

STARLINK-5473

NORAD 55663 · 2023-021AM

PAYLOAD ACTIVE UNKNOWN

§ Identity

Operator
Country
US
Launch date
2023-02-17
Launch site
AFWTR
Launch vehicle
Mass (kg)
RCS (m²)

Purposes: comms

External: N2YO · Heavens-Above · Gunter

§ Orbital elements

Epoch: 2026-09-20T22:00:03.000096Z

Period
95.70 min
Inclination
70.0009°
Eccentricity
0.0005304
Mean motion
15.04642912 rev/d
Perigee alt
548.9 km
Apogee alt
556.3 km
Semi-major
6,930.7 km
B*
6.9632e-4
RAAN
32.1596°
Arg perigee
259.2339°
Mean anomaly
303.0167°
Rev number
571

§ Raw data

STARLINK-54731 55663U 23021AM  26263.91670139  .00009724  00000+0  69632-3 0  99982 55663  70.0009  32.1596 0005304 259.2339 303.0167 15.04642912  5711

JSON: /api/v1/satellites/55663 · /tle

For live sub-satellite position, see the globe view (requires WebGL).

§ Visibility from observer

Set your observer location to see the next 7 days of passes ≥ 10°. The values pass through the URL so the page stays shareable.

No JS? Fill the form by hand. The geolocation button needs JavaScript.